Погода в Лодейном

Россия / Архангельская область     61°15′21″N   41°22′28″E
темп.,
°C
ветер,
м/с
пор.,
м/с
влажн.,
%
обл.,
%
осадки,
мм/ч
давл.,
гПа
погр.,
м
25 июля, вс
вс2500:00+11зюз2563100 0.0 1014116
03:00+11зюз3866100 0.0 1014244
06:00+12зюз396497 0.0 1014323
09:00+17з475021 0.0 10141060
12:00+18з3645100 0.0 10151937
15:00+18з364879 0.0 10151598
18:00+20зюз36445 0.0 10161763
21:00+15зюз396371 0.0 1016286
26 июля, пн
пн2600:00+11зюз398731 0.0 1017174
03:00+10з269421 0.0 1017112
06:00+13зюз258221 0.0 1017189
09:00+18зсз365970 0.0 1016672
12:00+22зсз484498 0.0 10162251
15:00+15ссз259394 1.5 1017292
18:00+19ссз48635 0.3 10171267
21:00+13сз268627 0.4 1018122
27 июля, вт
вт2700:00+10ссз268916 0.0 1020111
03:00+6ссз27872 0.0 1021146
06:00+8ссз27700 0.0 1022243
09:00+14ссз24502 0.0 1021806
12:00+18сз35395 0.0 10201585
15:00+20ссз46355 0.0 10191958
18:00+20ссз26425 0.0 10171863
21:00+12сз006945 0.0 101711
28 июля, ср
ср2800:00+10з22740 0.0 101818
03:00+9сз22754 0.0 101728
06:00+11сз24625 0.0 1016120
09:00+18зсз24415 0.0 1014585
12:00+24зюз353612 0.0 10111470
15:00+25з4938100 0.0 10092660
18:00+22зюз375475 0.0 1007291
21:00+15сз239061 3.8 100738
29 июля, чт
чт2900:00+14з249578 0.0 100661
03:00+13зюз22961 0.0 100530
06:00+15юз119012 0.0 100455
09:00+22ююз11595 0.0 1003457
12:00+26юз354298 0.0 10022097
15:00+20ююв357293 0.1 1001105
18:00+17юв248975 1.0 99962
21:00+16юз31193100 1.6 999244